Regional Weather Roundup
Issued by NWS State College, PA

Home | Current Version | Previous Version | Text Only | Print | Product List | Glossary Off
Versions: 1 2 3 4 5 6 7 8 9 10 11 12 13 14 15 16 17 18 19 20 21 22 23 24 25 26 27 28 29 30 31 32 33 34 35 36 37 38 39 40 41 42 43 44 45 46 47 48 49 50

000
ASUS41 KCTP 250910
RWRCTP

REGIONAL WEATHER ROUNDUP
NATIONAL WEATHER SERVICE STATE COLLEGE PA
400 AM EST SUN JAN 25 2015

Note: "fair" indicates few or no clouds below 12,000 feet with no
significant weather and/or obstructions to visibility.

* = STATION THAT DOES NOT REPORT PRECIPITATION /E.G. RAIN...SNOW...ETC/
    THUNDER OR FOG.

PAZ002>004-007>009-013>016-020>023-029>032-251000-
WESTERN PENNSYLVANIA

CITY           SKY/WX    TMP DP  RH WIND       PRES   REMARKS
ERIE           CLOUDY    32  27  81 W6        29.72R
MEADVILLE      CLOUDY    32  29  88 W8        29.67S FOG
FRANKLIN*      CLOUDY    30  28  93 W8G18     29.69R
NEW CASTLE     MIX PCPN  33  31  93 CALM      29.74R FOG
BEAVER COUNTY  NOT AVBL
BUTLER*        CLOUDY    32  30  93 SW12      29.74R
PITTSBURGH INT LGT SNOW  33  31  92 SW8       29.73R FOG
PITTSBURGH     CLOUDY    33  28  81 SW12      29.73R FOG
INDIANA*       CLOUDY    32  32 100 W16       29.74R FOG
LATROBE        CLOUDY    32  32 100 SW16      29.75R FOG
WASHINGTON CO* CLOUDY    34  28  80 SW8       29.76F
$$

PAZ004>006-010>012-017>019-024>028-033>037-041-042-045-046-049>053-251000-
CENTRAL PENNSYLVANIA

CITY           SKY/WX    TMP DP  RH WIND       PRES   REMARKS
BRADFORD       LGT SNOW  30  26  85 W17G24    29.58R FOG
DUBOIS         CLOUDY    30  29  96 W15       29.63R FOG
CLEARFIELD     CLOUDY    32  29  88 SW12G20   29.64R
JOHNSTOWN      FRZ RAIN  29  27  92 W13G23    29.64R FOG
ALTOONA        CLOUDY    34  28  79 W17G25    29.65S
STATE COLLEGE  CLOUDY    33  30  88 W15       29.65R FOG
WILLIAMSPORT   CLOUDY    35  27  72 W8        29.62R
SELINSGROVE    CLOUDY    37  28  70 SW5       29.65R
FT INDIANTOWN  CLOUDY    35  27  71 SW8       29.65S
CAPITAL CITY   CLOUDY    36  26  67 W6        29.67R
HARRISBURG     CLOUDY    36  26  67 W8        29.67R
YORK           PTCLDY    36  26  67 W6        29.68R
$$

PAZ038>040-043-044-047-048-054-055-060>062-067>071-251000-
EASTERN PENNSYLVANIA

CITY           SKY/WX    TMP DP  RH WIND       PRES   REMARKS
SCRANTON       CLOUDY    31  24  75 SW10      29.57R
MOUNT POCONO   MOCLDY    27  22  81 W17       29.51R WCI  14
ALLENTOWN      MOCLDY    34  25  69 W10       29.62R
QUAKERTOWN*    NOT AVBL
READING        PTCLDY    34  26  72 W10       29.64S
LANCASTER      CLOUDY    33  26  75 W9        29.66R
COATESVILLE    MOSUNNY   32  28  86 W7        29.66R
POTTSTOWN      MOCLDY    34  26  72 W6        29.65S
BLUE BELL      MOCLDY    36  28  75 CALM      29.64S
DOYLESTOWN     MOCLDY    32  26  78 W6        29.63R
WILLOW GROVE   NOT AVBL
NORTH PHILA    PTCLDY    36  25  64 W10       29.67R
PHILADELPHIA   MOCLDY    34  26  72 W10       29.68R
$$



USA.gov is the U.S. government's official web portal to all federal, state and local government web resources and services.